Location: Rounton
(54.4000°N, 1.3500°W)
Time: 15:18:31
(UTC+01:00)

S-56A Canister/Altair - Pass Details

Date: 17 September 2024
Orbit: 636 x 2487 km, 38.9° (Epoch: 02 October)

Event Time Altitude Azimuth Distance (km) Brightness Sun altitude
Rises 23:59:02 0° 259° (W) 4,033 11.3 -32.1°
Reaches altitude 10° 00:02:24 10° 243° (WSW) 3,356 10.7 -32.2°
Enters shadow 00:02:47 11° 240° (WSW) 3,299 10.6 -32.2°
Maximum altitude 00:08:13 20° 200° (SSW) 3,110 - -32.4°
Drops below altitude 10° 00:15:32 10° 160° (SSE) 4,363 - -32.7°
Sets 00:20:50 0° 146° (SSE) 5,675 - -32.9°
